Regional Weather Roundup
Issued by NWS Jackson, KY

Home | Current Version | Previous Version | Text Only | Print | Product List | Glossary On
Versions: 1 2 3 4 5 6 7 8 9 10 11 12 13 14 15 16 17 18 19 20 21 22 23 24 25 26 27
000
ASUS43 KJKL 280610
RWRJKL

EAST KENTUCKY HOURLY WEATHER ROUNDUP
NATIONAL WEATHER SERVICE JACKSON KY
200 AM EDT WED SEP 28 2016

NOTE: "FAIR" INDICATES FEW OR NO CLOUDS BELOW 12,000 FEET WITH
NO SIGNIFICANT WEATHER AND/OR OBSTRUCTIONS TO VISIBILITY.

* THESE REPORTS ARE NOT UNDER NWS QUALITY CONTROL AND MAY NOT
  REPORT WEATHER SUCH AS PRECIPITATION AND FOG.

KYZ079-080-083-085-087-088-110-112-115-119-120-280700
...EASTERN KENTUCKY...

CITY           SKY/WX    TMP DP  RH WIND       PRES   REMARKS
JACKSON        CLEAR     54  46  74 CALM      29.95S
6HR MIN TEMP:  54; 6HR MAX TEMP:  66;

LONDON         CLEAR     49  45  86 CALM      29.96S
6HR MIN TEMP:  49; 6HR MAX TEMP:  64;

SOMERSET*      CLEAR     48  48 100 CALM      29.97S
MONTICELLO*    CLEAR     48  46  93 W9        29.97F
6HR MIN TEMP:  47; 6HR MAX TEMP:  58;

WILLIAMSBURG*  CLEAR     48  48 100 CALM      29.96F
MIDDLESBORO*   PTCLDY    49  48  98 CALM      29.98S
6HR MIN TEMP:  49; 6HR MAX TEMP:  62;

HARLAN APT*    CLEAR     50  46  87 CALM      29.98S
MOREHEAD APT*  CLEAR     59  43  55 SW6       29.95S
ASHLAND*       CLEAR     52  45  76 CALM      29.91S
$$

KYZ035-036-041-042-044-050-067-078-099-280700
...CENTRAL KENTUCKY...

CITY           SKY/WX    TMP DP  RH WIND       PRES   REMARKS
MT STERLING*   CLEAR     52  46  82 SW6       29.95S
FLEMING/MASON* CLEAR     56  43  62 S7        29.93S
DANVILLE*      CLEAR     52  46  82 S5        29.95S
LEXINGTON      CLEAR     57  44  62 S7        29.92F
6HR MIN TEMP:  56; 6HR MAX TEMP:  66;

FRANKFORT      CLEAR     55  45  68 S6        29.90S
6HR MIN TEMP:  55; 6HR MAX TEMP:  65;

LOUISVILLE     PTCLDY    62  47  57 S5        29.88F
6HR MIN TEMP:  61; 6HR MAX TEMP:  71;

LEBANON*         N/A     59  46  63 S7        29.93S
GLASGOW*       CLEAR     51  51 100 CALM      29.94S
BOWLING GREEN  CLEAR     56  50  80 CALM      29.93S
6HR MIN TEMP:  56; 6HR MAX TEMP:  69;

$$

KYZ091>093-OHZ055-061-077-WVZ005-015-034-035-042-280700
...SOUTHERN OHIO/WEST VIRGINIA...

CITY           SKY/WX    TMP DP  RH WIND       PRES   REMARKS
COVINGTON      CLEAR     57  48  72 S9        29.87F
COLUMBUS       PTCLDY    59  46  62 SE5       29.87S
DAYTON         CLEAR     59  47  64 S12       29.85F
WILMINGTON     CLEAR     54  47  77 S6        29.88S
HUNTINGTON     CLEAR     51  46  83 CALM      29.92S
CHARLESTON     CLEAR     50  47  89 CALM      29.94S
PINEVILLE*     CLEAR     47  44  90 MISG      30.03R
BECKLEY        CLEAR     48  42  80 CALM      29.99S
BLUEFIELD      CLEAR     51  43  74 W5        30.00S
LOGAN CO APT*    N/A     54  50  87 CALM      29.95S
$$

VAZ002-007-008-TNZ017-027-036-066-071-280700
...SOUTHWEST VIRGINIA/EAST TENNESSEE...

CITY           SKY/WX    TMP DP  RH WIND       PRES   REMARKS
WISE*          CLEAR     54  34  47 CALM      30.00S
JONESVILLE*    MOCLDY    50  46  87 CALM      29.99S
ABINGDON*      CLEAR     58  58 100 CALM      29.97S FOG
BRISTOL        PTCLDY    57  56  96 CALM      29.95S FOG
MORRISTOWN*    CLOUDY    57  54  88 CALM      29.93S
SEVIERVILLE*   PTCLDY    61  59  94 CALM      29.93F
KNOXVILLE      PTCLDY    64  49  57 CALM      29.93F
OAK RIDGE      CLEAR     56  51  84 CALM      29.96S
CROSSVILLE     CLEAR     49  45  86 W3        29.98F
NASHVILLE      CLEAR     55  49  80 S6        29.95S
$$

...KEY TO REMARKS...
VSB - VISIBILITY IN MILES
WCI - WIND CHILL INDEX
HX  - HEAT INDEX

$$




USA.gov is the U.S. government's official web portal to all federal, state and local government web resources and services.